GFSNE_850_dewp_048.txt.gz
Dewpoint
-4 -3 -4 -7 -7 -8 -8 -9 -9 -8 -11 -12 -13 -13 -12 -12 -11 -10 -10 -9 -9 -10 -12 -13 -12 -16 -15 -16 -15 -13 -7 -1 -5 -1 3 4 5 5
-4 -6 -6 -8 -9 -9 -10 -11 -11 -11 -12 -13 -13 -13 -12 -12 -12 -10 -10 -9 -9 -9 -10 -11 -11 -15 -16 -15 -16 -14 -10 -2 -0 -2 3 4 3 3
-6 -6 -8 -8 -9 -10 -10 -11 -11 -12 -12 -13 -13 -13 -12 -12 -11 -9 -8 -10 -10 -10 -9 -9 -10 -14 -14 -15 -15 -15 -13 -7 -2 1 3 3 3 3
-6 -7 -8 -9 -9 -10 -11 -11 -11 -11 -11 -12 -12 -12 -12 -12 -12 -11 -10 -10 -10 -11 -9 -9 -10 -12 -13 -14 -15 -14 -14 -11 -4 -1 1 1 1 3
-7 -7 -8 -9 -10 -10 -10 -10 -11 -11 -11 -10 -11 -11 -12 -12 -12 -11 -10 -10 -10 -10 -9 -11 -11 -11 -12 -14 -13 -14 -13 -11 -5 -2 -2 -1 -1 1
-7 -7 -9 -9 -9 -10 -10 -11 -12 -12 -11 -10 -10 -11 -12 -12 -11 -11 -12 -11 -10 -10 -9 -9 -10 -11 -12 -14 -15 -13 -10 -9 -4 -3 -2 -3 -3 -2
-8 -9 -11 -11 -14 -15 -11 -11 -11 -11 -11 -11 -12 -11 -12 -11 -11 -12 -12 -11 -11 -10 -9 -9 -10 -10 -10 -10 -10 -14 -9 -8 -6 -4 -3 -3 -2 -2
-10 -11 -12 -13 -12 -12 -11 -12 -12 -11 -11 -11 -11 -10 -11 -11 -11 -10 -10 -11 -10 -10 -9 -8 -9 -8 -9 -9 -9 -9 -7 -8 -7 -5 -4 -3 -3 -3
-10 -11 -12 -13 -11 -11 -11 -12 -11 -10 -11 -11 -11 -11 -10 -10 -10 -10 -11 -11 -10 -10 -9 -8 -9 -9 -8 -9 -9 -10 -8 -8 -7 -8 -5 -5 -4 -4
-10 -10 -11 -11 -11 -12 -12 -11 -11 -11 -11 -11 -11 -11 -10 -11 -10 -10 -10 -9 -10 -10 -10 -10 -10 -9 -9 -8 -8 -10 -13 -8 -8 -7 -7 -6 -5 -5
-10 -10 -11 -11 -11 -13 -13 -12 -11 -11 -12 -11 -12 -12 -12 -12 -11 -10 -10 -9 -9 -9 -10 -9 -9 -9 -9 -8 -9 -8 -12 -14 -9 -9 -7 -7 -7 -6
-10 -11 -11 -12 -16 -13 -13 -13 -12 -12 -12 -12 -12 -11 -11 -10 -10 -10 -9 -9 -10 -9 -11 -9 -9 -10 -9 -9 -8 -7 -9 -13 -14 -11 -8 -8 -7 -6
-10 -11 -11 -12 -25 -17 -14 -13 -13 -14 -13 -12 -12 -11 -11 -10 -10 -10 -10 -9 -9 -9 -11 -9 -10 -10 -9 -7 -7 -7 -7 -7 -11 -12 -14 -13 -8 -7
-11 -11 -12 -18 -27 -19 -15 -18 -22 -15 -13 -13 -12 -12 -11 -11 -11 -11 -11 -10 -9 -9 -9 -9 -9 -8 -8 -7 -8 -7 -7 -9 -8 -7 -6 -9 -13 -13
-12 -16 -19 -19 -28 -17 -16 -23 -16 -13 -14 -13 -13 -12 -12 -12 -11 -10 -10 -9 -9 -9 -9 -9 -9 -9 -8 -7 -7 -7 -7 -7 -8 -8 -8 -7 -7 -8
-11 -12 -17 -17 -19 -17 -13 -13 -14 -16 -17 -14 -13 -13 -13 -12 -11 -11 -10 -9 -9 -8 -8 -8 -8 -8 -9 -8 -7 -7 -7 -7 -8 -8 -9 -9 -7 -7
-13 -12 -12 -12 -14 -15 -14 -14 -14 -16 -16 -14 -14 -13 -13 -12 -12 -11 -11 -10 -9 -8 -8 -8 -8 -8 -8 -8 -7 -7 -7 -7 -7 -8 -9 -7 -7 -8
-13 -12 -12 -12 -13 -14 -14 -14 -14 -15 -23 -21 -14 -14 -14 -13 -13 -12 -11 -11 -10 -10 -9 -9 -9 -8 -8 -9 -9 -7 -7 -7 -7 -8 -8 -8 -7 -7
-12 -11 -11 -12 -13 -13 -15 -15 -15 -17 -25 -24 -16 -15 -14 -14 -13 -12 -12 -12 -11 -10 -10 -10 -9 -9 -8 -7 -9 -9 -8 -8 -8 -8 -8 -8 -8 -8
-12 -11 -11 -12 -13 -13 -15 -15 -17 -22 -21 -27 -23 -18 -15 -15 -13 -13 -13 -13 -12 -11 -11 -10 -9 -10 -9 -9 -9 -9 -10 -9 -9 -8 -9 -10 -10 -10
-11 -11 -11 -12 -12 -13 -14 -20 -20 -17 -21 -25 -23 -21 -19 -16 -14 -14 -13 -13 -13 -13 -11 -11 -11 -12 -11 -11 -10 -9 -10 -10 -10 -10 -11 -9 -8 -8
-10 -11 -11 -12 -12 -13 -14 -18 -19 -15 -17 -21 -24 -20 -21 -20 -15 -15 -14 -14 -14 -13 -12 -12 -11 -11 -10 -9 -8 -11 -10 -10 -11 -11 -12 -12 -10 -8
-10 -11 -11 -12 -12 -13 -14 -17 -18 -21 -21 -19 -20 -24 -30 -22 -23 -17 -15 -15 -14 -14 -13 -12 -11 -11 -10 -10 -10 -9 -11 -11 -10 -10 -11 -12 -12 -11

GFSNE_850_dewp_051.txt.gz
Dewpoint
-3 -3 -4 -4 -5 -7 -8 -8 -8 -8 -10 -12 -13 -13 -13 -13 -13 -13 -12 -11 -11 -11 -12 -12 -12 -11 -11 -12 -16 -22 -21 -20 -16 -10 -6 -8 -1 5
-3 -4 -4 -6 -6 -7 -8 -8 -10 -11 -11 -13 -13 -13 -13 -13 -13 -13 -12 -11 -10 -9 -9 -9 -9 -9 -9 -10 -16 -20 -21 -20 -18 -14 -3 -5 -7 2
-5 -4 -5 -6 -7 -7 -8 -9 -11 -12 -11 -11 -12 -12 -12 -12 -12 -11 -11 -10 -10 -11 -11 -10 -8 -7 -8 -10 -13 -18 -19 -18 -18 -15 -7 -1 -2 1
-4 -4 -5 -6 -7 -8 -10 -11 -11 -11 -11 -11 -11 -12 -12 -11 -11 -11 -11 -11 -10 -11 -11 -9 -8 -8 -9 -9 -12 -17 -19 -18 -16 -16 -10 -2 1 3
-5 -5 -6 -6 -8 -10 -10 -10 -11 -12 -12 -12 -12 -11 -10 -10 -11 -11 -11 -10 -11 -11 -11 -11 -10 -9 -9 -10 -13 -17 -18 -19 -15 -13 -12 -4 -1 1
-5 -6 -7 -10 -10 -9 -10 -11 -11 -11 -12 -12 -12 -12 -11 -11 -11 -11 -10 -10 -10 -10 -10 -10 -9 -9 -11 -12 -12 -15 -17 -19 -14 -10 -6 -4 -2 -1
-7 -10 -11 -11 -11 -13 -12 -11 -10 -11 -11 -12 -12 -11 -11 -11 -10 -9 -10 -10 -10 -10 -11 -11 -10 -9 -8 -8 -8 -10 -11 -17 -15 -9 -5 -4 -3 -2
-10 -10 -11 -11 -12 -12 -11 -10 -11 -11 -11 -11 -11 -10 -10 -11 -10 -9 -9 -9 -9 -12 -9 -10 -9 -8 -8 -8 -7 -7 -9 -11 -12 -9 -6 -4 -4 -3
-10 -10 -11 -12 -11 -11 -10 -12 -11 -11 -11 -11 -11 -10 -10 -9 -10 -10 -10 -10 -9 -10 -9 -10 -11 -10 -10 -9 -8 -7 -9 -9 -9 -7 -7 -5 -4 -4
-9 -10 -10 -11 -11 -11 -12 -12 -11 -11 -11 -11 -11 -11 -10 -11 -11 -11 -11 -11 -11 -11 -11 -9 -11 -11 -10 -10 -11 -9 -10 -11 -12 -8 -7 -7 -5 -4
-9 -10 -10 -11 -11 -13 -19 -12 -12 -11 -11 -11 -11 -12 -13 -13 -12 -11 -11 -9 -9 -10 -10 -9 -11 -10 -10 -10 -10 -9 -9 -11 -15 -9 -8 -6 -6 -5
-9 -10 -10 -10 -11 -14 -24 -13 -12 -12 -12 -12 -12 -12 -11 -11 -10 -10 -10 -9 -9 -9 -9 -8 -9 -8 -8 -9 -10 -10 -9 -10 -13 -14 -9 -8 -7 -6
-9 -10 -10 -10 -14 -21 -24 -15 -13 -21 -17 -13 -12 -12 -11 -11 -11 -11 -11 -10 -10 -10 -9 -8 -9 -9 -9 -8 -7 -7 -8 -7 -11 -14 -15 -9 -8 -8
-10 -10 -10 -14 -18 -22 -21 -16 -19 -15 -12 -13 -12 -12 -11 -11 -11 -11 -10 -10 -9 -9 -9 -8 -9 -9 -9 -8 -7 -7 -8 -8 -7 -7 -9 -14 -13 -8
-11 -11 -13 -16 -16 -16 -13 -14 -14 -12 -13 -13 -12 -12 -12 -11 -12 -11 -11 -10 -10 -8 -8 -9 -8 -8 -8 -8 -7 -6 -7 -8 -9 -9 -7 -7 -8 -14
-10 -10 -12 -12 -11 -12 -12 -12 -12 -12 -13 -13 -13 -12 -12 -12 -11 -11 -11 -11 -9 -8 -9 -9 -9 -8 -9 -8 -8 -7 -8 -7 -8 -8 -8 -8 -9 -8
-11 -13 -11 -10 -11 -11 -12 -12 -12 -13 -13 -14 -13 -13 -13 -12 -12 -12 -11 -11 -10 -9 -8 -8 -8 -9 -9 -9 -9 -8 -6 -7 -7 -7 -9 -9 -7 -7
-12 -11 -10 -10 -11 -11 -11 -12 -12 -13 -13 -14 -14 -13 -13 -13 -12 -12 -11 -11 -11 -10 -9 -9 -8 -8 -8 -8 -8 -8 -6 -6 -7 -8 -9 -7 -7 -9
-11 -11 -11 -11 -10 -11 -11 -12 -13 -13 -15 -13 -14 -13 -14 -13 -13 -12 -12 -11 -11 -11 -10 -10 -9 -9 -8 -7 -9 -9 -8 -8 -8 -8 -8 -8 -8 -8
-11 -10 -11 -11 -11 -11 -12 -12 -12 -13 -13 -14 -14 -14 -14 -14 -13 -13 -13 -12 -12 -12 -11 -10 -9 -10 -9 -9 -9 -10 -10 -9 -8 -8 -8 -8 -8 -8
-10 -10 -10 -11 -11 -11 -12 -12 -13 -13 -13 -14 -14 -14 -14 -14 -14 -13 -13 -13 -13 -12 -11 -11 -11 -12 -12 -11 -10 -9 -11 -10 -10 -9 -9 -8 -8 -9
-11 -11 -10 -11 -11 -11 -11 -12 -13 -13 -13 -13 -14 -14 -14 -14 -14 -14 -14 -14 -14 -13 -12 -12 -11 -11 -10 -10 -9 -10 -11 -11 -11 -11 -12 -10 -9 -7
-10 -11 -11 -11 -11 -11 -12 -12 -12 -13 -13 -14 -14 -14 -15 -15 -14 -14 -14 -14 -14 -14 -13 -12 -11 -10 -10 -9 -11 -9 -12 -11 -11 -11 -12 -12 -12 -11

GFSNE_850_dewp_054.txt.gz
Dewpoint
-3 -2 -3 -4 -4 -4 -6 -7 -7 -7 -8 -9 -10 -11 -12 -12 -12 -12 -13 -12 -12 -12 -12 -11 -11 -11 -10 -7 -6 -7 -11 -20 -14 -7 -17 -17 -15 -9
-4 -3 -4 -4 -4 -4 -6 -7 -8 -8 -8 -9 -10 -10 -11 -11 -13 -12 -12 -11 -11 -11 -11 -11 -10 -10 -10 -8 -7 -9 -10 -14 -20 -21 -21 -20 -17 -5
-4 -5 -6 -4 -4 -5 -6 -8 -9 -9 -9 -10 -10 -10 -10 -11 -11 -12 -13 -13 -12 -12 -12 -11 -11 -11 -11 -9 -7 -8 -9 -11 -16 -21 -20 -19 -18 -7
-7 -5 -4 -5 -5 -7 -9 -9 -9 -9 -10 -10 -11 -12 -12 -11 -11 -11 -14 -13 -12 -12 -13 -11 -12 -12 -12 -11 -10 -9 -10 -13 -15 -21 -20 -18 -16 -14
-5 -6 -6 -8 -7 -8 -10 -10 -10 -12 -13 -11 -11 -12 -12 -12 -12 -12 -13 -12 -11 -10 -10 -10 -9 -9 -8 -8 -8 -9 -12 -15 -16 -19 -19 -15 -14 -12
-6 -6 -7 -8 -10 -10 -11 -12 -13 -12 -12 -11 -12 -12 -12 -13 -13 -11 -10 -11 -10 -10 -11 -13 -12 -12 -12 -10 -9 -9 -11 -12 -14 -16 -18 -11 -12 -7
-6 -7 -9 -10 -11 -11 -12 -12 -10 -10 -11 -12 -12 -12 -12 -11 -11 -11 -10 -10 -12 -12 -11 -12 -10 -12 -11 -10 -10 -9 -8 -8 -9 -11 -17 -9 -7 -4
-8 -9 -10 -11 -11 -12 -11 -10 -10 -11 -12 -11 -11 -11 -12 -13 -10 -10 -10 -11 -11 -14 -11 -14 -13 -12 -11 -11 -10 -8 -7 -7 -8 -10 -12 -9 -7 -5
-9 -9 -9 -10 -11 -10 -11 -12 -14 -19 -12 -12 -11 -11 -10 -11 -11 -11 -13 -14 -13 -14 -12 -11 -14 -12 -12 -12 -13 -10 -9 -9 -9 -9 -9 -8 -6 -5
-9 -8 -10 -9 -9 -10 -12 -13 -18 -18 -13 -12 -11 -11 -12 -12 -14 -13 -12 -12 -12 -12 -10 -9 -11 -11 -12 -12 -12 -12 -11 -11 -10 -10 -12 -9 -7 -5
-10 -11 -9 -9 -10 -11 -12 -16 -22 -17 -13 -12 -14 -15 -13 -13 -12 -11 -11 -10 -11 -10 -11 -9 -10 -9 -11 -12 -12 -12 -11 -11 -10 -11 -13 -10 -6 -6
-13 -10 -10 -9 -10 -11 -13 -19 -22 -16 -20 -19 -14 -14 -13 -12 -12 -11 -10 -10 -10 -11 -11 -10 -10 -8 -9 -9 -8 -8 -9 -9 -8 -9 -13 -9 -7 -6
-10 -10 -10 -10 -10 -11 -18 -21 -18 -16 -16 -14 -14 -14 -13 -13 -12 -12 -12 -12 -11 -11 -11 -9 -9 -9 -9 -9 -9 -8 -8 -9 -7 -7 -12 -11 -9 -7
-11 -12 -11 -10 -12 -16 -16 -16 -14 -14 -13 -12 -15 -13 -14 -13 -13 -12 -11 -10 -10 -10 -10 -9 -9 -8 -9 -10 -12 -9 -7 -7 -7 -8 -13 -14 -11 -9
-11 -12 -12 -12 -13 -12 -13 -12 -12 -13 -13 -14 -14 -14 -14 -14 -13 -12 -12 -12 -12 -10 -8 -9 -9 -8 -8 -8 -9 -8 -7 -7 -8 -8 -7 -8 -10 -15
-10 -10 -11 -12 -11 -11 -11 -11 -12 -12 -12 -13 -13 -16 -14 -13 -14 -13 -12 -11 -11 -10 -9 -8 -8 -8 -8 -8 -8 -9 -9 -7 -7 -8 -8 -9 -9 -7
-10 -10 -11 -12 -10 -11 -12 -12 -12 -13 -12 -13 -15 -15 -14 -14 -15 -14 -12 -12 -12 -11 -11 -10 -9 -8 -8 -8 -8 -8 -8 -7 -7 -8 -9 -11 -9 -8
-11 -11 -11 -11 -11 -11 -12 -12 -12 -13 -12 -13 -14 -14 -14 -14 -15 -13 -12 -13 -12 -12 -12 -11 -10 -10 -9 -8 -8 -9 -7 -6 -7 -8 -8 -7 -7 -7
-11 -11 -11 -11 -11 -11 -12 -12 -11 -12 -13 -13 -13 -14 -14 -14 -15 -13 -13 -13 -13 -14 -12 -11 -9 -9 -10 -9 -8 -9 -8 -8 -8 -9 -10 -9 -7 -7
-11 -11 -11 -11 -11 -11 -12 -11 -11 -12 -13 -13 -14 -14 -14 -14 -15 -14 -14 -13 -14 -13 -12 -12 -11 -11 -12 -11 -10 -11 -11 -10 -9 -9 -9 -8 -8 -8
-11 -10 -10 -11 -10 -10 -11 -12 -12 -12 -13 -14 -14 -14 -14 -14 -15 -14 -15 -15 -14 -13 -13 -13 -12 -11 -11 -10 -9 -9 -11 -11 -10 -9 -9 -9 -8 -9
-11 -11 -11 -11 -11 -11 -10 -11 -12 -12 -13 -13 -13 -14 -14 -14 -15 -14 -15 -15 -14 -14 -14 -13 -11 -10 -10 -9 -9 -9 -12 -11 -11 -11 -11 -10 -9 -8
-9 -9 -9 -10 -10 -10 -10 -11 -12 -12 -13 -13 -13 -14 -14 -17 -14 -15 -14 -14 -15 -16 -19 -12 -12 -10 -10 -10 -10 -10 -12 -11 -11 -11 -12 -12 -11 -9

GFSNE_850_dewp_057.txt.gz
Dewpoint
-4 -4 -4 -4 -3 -3 -3 -4 -5 -6 -7 -8 -10 -10 -10 -10 -10 -11 -11 -13 -14 -14 -13 -12 -12 -10 -9 -8 -8 -8 -8 -7 -6 -6 -6 -6 -5 -5
-4 -5 -4 -4 -4 -4 -4 -4 -5 -6 -7 -8 -8 -9 -10 -10 -10 -11 -11 -11 -11 -13 -14 -14 -12 -11 -11 -11 -12 -9 -8 -8 -6 -6 -7 -7 -7 -7
-4 -4 -5 -6 -4 -4 -4 -5 -6 -8 -8 -9 -9 -10 -10 -11 -12 -11 -11 -12 -12 -14 -14 -12 -13 -13 -12 -11 -11 -12 -11 -9 -9 -11 -9 -8 -8 -12
-7 -6 -5 -5 -6 -6 -6 -7 -8 -9 -10 -11 -12 -16 -16 -14 -12 -12 -12 -13 -14 -13 -12 -11 -11 -9 -10 -9 -9 -10 -10 -10 -11 -11 -12 -14 -15 -19
-8 -8 -6 -6 -6 -7 -9 -10 -10 -11 -13 -14 -14 -15 -15 -15 -13 -14 -14 -13 -12 -12 -11 -12 -13 -13 -13 -12 -11 -11 -10 -10 -11 -13 -11 -12 -16 -17
-7 -6 -6 -7 -9 -10 -10 -11 -12 -13 -13 -12 -13 -15 -13 -13 -13 -12 -14 -14 -13 -12 -12 -13 -13 -13 -13 -13 -14 -12 -11 -10 -10 -9 -9 -10 -15 -17
-6 -6 -7 -9 -9 -10 -12 -11 -11 -11 -11 -13 -17 -13 -12 -13 -12 -11 -10 -11 -13 -14 -15 -16 -15 -16 -16 -15 -13 -12 -10 -9 -9 -8 -9 -9 -13 -11
-6 -8 -9 -9 -10 -11 -11 -10 -10 -12 -14 -19 -15 -12 -12 -12 -10 -11 -12 -13 -14 -16 -13 -15 -13 -12 -13 -15 -14 -14 -13 -11 -10 -9 -8 -9 -12 -10
-8 -10 -9 -9 -9 -10 -10 -10 -11 -14 -18 -19 -13 -12 -11 -11 -12 -12 -13 -13 -13 -14 -12 -12 -11 -10 -10 -11 -12 -13 -12 -12 -11 -9 -9 -9 -9 -8
-9 -11 -10 -9 -9 -10 -10 -12 -12 -15 -21 -16 -12 -12 -13 -14 -12 -11 -12 -11 -12 -12 -10 -10 -12 -12 -12 -11 -13 -12 -12 -12 -11 -10 -11 -10 -11 -10
-8 -10 -12 -11 -10 -10 -11 -11 -14 -19 -19 -18 -20 -14 -14 -13 -12 -11 -11 -11 -11 -12 -12 -11 -13 -12 -12 -12 -11 -10 -11 -10 -10 -10 -10 -10 -12 -12
-9 -11 -13 -11 -11 -10 -11 -13 -17 -19 -17 -16 -16 -18 -15 -13 -13 -12 -12 -11 -11 -11 -12 -10 -11 -10 -9 -9 -10 -10 -10 -7 -10 -9 -8 -9 -12 -9
-10 -11 -12 -12 -12 -11 -11 -14 -16 -15 -15 -14 -15 -16 -15 -15 -14 -14 -13 -11 -11 -10 -11 -10 -10 -10 -9 -8 -9 -10 -10 -8 -11 -10 -8 -8 -12 -8
-9 -10 -11 -11 -12 -11 -13 -13 -13 -13 -13 -14 -14 -14 -17 -15 -14 -14 -13 -12 -12 -11 -12 -8 -8 -9 -9 -9 -9 -9 -8 -6 -8 -7 -7 -10 -13 -9
-9 -9 -11 -12 -12 -12 -12 -12 -12 -12 -13 -13 -13 -14 -15 -16 -14 -15 -14 -13 -12 -12 -10 -9 -8 -9 -8 -9 -9 -9 -9 -7 -7 -7 -7 -12 -14 -12
-9 -9 -10 -10 -11 -12 -11 -11 -12 -12 -12 -12 -12 -13 -15 -16 -16 -16 -13 -12 -13 -13 -11 -10 -9 -9 -8 -8 -9 -9 -9 -7 -7 -7 -8 -8 -8 -8
-9 -9 -10 -10 -11 -12 -12 -11 -12 -12 -12 -13 -13 -13 -15 -15 -17 -16 -13 -13 -12 -13 -13 -12 -11 -10 -9 -9 -8 -9 -9 -10 -6 -7 -8 -10 -8 -8
-9 -10 -11 -11 -12 -12 -11 -10 -11 -12 -11 -12 -13 -14 -14 -15 -16 -16 -14 -14 -13 -14 -13 -11 -10 -11 -10 -9 -9 -9 -8 -7 -7 -8 -7 -8 -7 -7
-10 -11 -11 -11 -12 -12 -11 -11 -11 -12 -11 -12 -13 -14 -14 -15 -15 -16 -15 -15 -15 -14 -12 -12 -11 -12 -12 -10 -9 -9 -9 -8 -8 -9 -9 -7 -7 -7
-10 -11 -11 -12 -12 -11 -12 -11 -11 -12 -12 -12 -13 -14 -14 -14 -15 -15 -16 -15 -15 -14 -14 -14 -12 -12 -11 -11 -10 -9 -11 -9 -8 -8 -8 -8 -8 -8
-9 -10 -11 -11 -11 -10 -11 -10 -10 -11 -11 -12 -13 -14 -14 -14 -14 -15 -15 -15 -15 -15 -15 -15 -11 -10 -10 -10 -10 -9 -10 -11 -9 -9 -9 -9 -9 -9
-9 -9 -10 -11 -12 -11 -11 -11 -10 -11 -12 -12 -13 -14 -13 -14 -15 -15 -15 -14 -15 -16 -19 -12 -11 -10 -10 -9 -9 -9 -12 -11 -11 -11 -10 -9 -8 -9
-8 -9 -9 -9 -9 -10 -10 -10 -10 -11 -11 -12 -13 -13 -14 -15 -16 -15 -14 -15 -16 -22 -25 -13 -11 -11 -10 -10 -9 -10 -11 -10 -11 -11 -12 -11 -9 -9